Wind_Speed
37 36 34 36 38 38 36 34 32 30 27 25 22 20 18 17 15 15 13 13 14 14 11 18 18 16 16 13 15 15 16 17 18 16 12 11 9 10 12 7 7 6 5 6 5 6 9 7 9 12 15 21 32 29
43 35 32 32 33 36 37 36 33 31 29 27 23 21 19 19 18 17 16 14 13 13 9 15 19 18 19 18 17 17 11 13 12 11 14 10 11 11 13 8 8 10 14 10 11 9 10 20 20 28 32 29 33 29
38 35 33 32 31 32 35 36 35 33 31 29 26 23 21 20 20 20 18 17 16 14 12 13 16 17 18 19 18 17 17 15 16 19 16 15 15 14 18 19 16 16 16 20 19 25 21 23 22 28 28 28 31 34
29 33 29 32 31 31 30 31 32 33 32 31 28 25 23 22 23 23 22 19 19 17 17 16 14 18 16 18 18 19 19 19 21 20 20 22 24 20 24 22 18 19 18 21 22 24 22 24 31 31 31 26 32 26
10 20 33 30 31 31 29 27 27 28 29 29 28 27 26 25 25 25 23 22 20 20 12 18 21 18 18 18 19 20 20 20 21 21 23 24 25 24 28 29 31 27 29 25 26 22 26 27 30 32 30 36 27 23
11 10 11 24 33 29 31 29 26 25 25 26 27 27 27 26 26 26 26 26 24 24 23 24 21 18 20 23 24 22 21 21 23 25 26 25 27 24 23 30 34 28 21 25 26 31 33 27 26 31 28 23 23 27
8 9 10 11 18 28 36 28 26 28 26 24 24 25 26 28 28 29 28 26 26 25 25 26 24 28 24 23 25 24 26 25 23 24 28 27 26 26 32 39 35 30 28 22 30 29 27 28 26 22 19 22 26 24
6 6 6 8 12 21 26 32 36 30 27 27 26 25 25 26 28 29 27 26 23 24 26 26 18 20 22 27 29 29 31 30 31 32 34 31 28 27 33 37 34 31 25 29 31 22 24 24 19 21 23 23 24 25
11 9 7 4 4 8 17 26 32 33 32 29 27 26 27 29 30 27 27 27 28 28 22 30 30 24 26 29 27 26 29 31 32 36 36 34 37 34 38 33 32 22 27 29 25 25 21 20 18 19 22 25 28 32
16 15 12 10 7 5 7 12 22 29 33 31 29 29 32 33 27 26 27 28 31 34 36 39 33 31 29 24 22 25 27 24 24 33 30 35 46 44 40 38 38 33 30 26 24 22 19 20 17 22 25 29 31 33
18 18 16 14 12 9 7 8 10 20 30 35 33 33 33 32 26 26 25 24 28 36 40 44 44 39 36 30 25 22 21 12 19 25 23 27 40 37 28 25 27 27 26 24 22 22 19 17 22 27 29 31 32 35
16 16 15 14 14 11 8 8 9 13 21 26 33 35 28 21 17 21 20 25 28 26 36 34 33 38 37 35 30 26 27 15 15 23 14 21 26 22 18 13 12 14 17 19 18 16 19 24 27 30 31 31 33 34
12 12 12 11 11 11 11 11 9 12 18 25 34 34 26 18 20 10 15 15 22 27 33 36 34 30 28 30 27 20 15 17 22 14 14 15 16 11 10 8 11 15 15 14 14 20 24 27 29 30 31 31 34 36
10 12 11 9 7 6 7 9 9 11 15 17 10 12 12 7 8 12 16 17 22 20 27 25 20 19 28 26 23 10 13 10 9 7 7 9 11 9 9 8 11 11 10 14 20 23 26 28 29 29 30 33 35 35
10 11 11 9 8 6 5 5 5 5 8 9 6 6 6 6 6 7 13 16 15 18 15 17 24 26 22 16 10 10 7 6 7 4 9 6 5 6 5 7 11 13 19 22 24 28 29 29 29 31 32 34 34 35
13 12 12 11 9 7 7 7 6 7 5 4 4 3 5 6 6 8 8 9 9 11 14 11 8 5 4 4 5 5 3 3 5 3 9 8 8 8 11 12 16 19 22 25 28 29 28 28 30 33 33 33 33 32
7 13 14 15 12 9 7 7 5 6 2 3 6 6 5 3 4 5 4 4 4 2 4 3 4 2 0 1 3 3 2 9 11 14 15 13 12 11 14 17 21 23 26 28 26 26 28 30 31 33 33 32 31 29
10 13 17 15 17 14 10 9 10 5 5 5 5 4 0 2 3 3 1 2 2 3 6 5 4 3 2 3 9 13 14 13 13 14 16 17 15 17 20 23 26 28 26 25 26 28 29 31 30 31 31 28 29 29
15 12 15 16 15 16 14 14 12 10 14 14 13 8 6 6 8 8 8 8 7 6 7 6 5 5 9 12 15 16 18 17 17 18 18 17 20 23 25 25 25 24 25 26 27 29 30 30 29 28 28 28 31 33
14 14 16 13 15 18 14 15 12 14 9 12 11 10 10 9 9 10 11 12 12 12 14 15 15 15 15 16 16 18 20 21 21 21 22 23 24 24 22 22 24 26 27 27 27 28 29 29 30 31 33 36 36 36
15 14 18 16 14 20 20 14 12 13 11 12 11 13 14 14 14 15 16 15 17 18 16 15 14 14 19 21 22 22 21 20 21 23 24 23 21 22 24 26 27 28 26 27 27 28 29 32 33 36 37 35 36 36
16 15 19 19 21 22 24 19 14 13 11 10 13 14 15 16 15 15 13 17 19 13 13 15 17 18 18 18 19 19 21 21 21 21 22 23 23 24 26 27 28 29 29 30 30 33 36 38 38 36 35 36 36 34
17 21 19 18 18 22 16 23 19 13 13 13 13 14 15 14 12 11 15 13 10 11 14 15 17 16 16 17 17 17 19 21 21 22 23 24 25 27 29 28 29 33 35 37 38 40 39 35 34 36 37 38 36 35
21 22 24 11 17 14 20 21 21 19 16 14 12 12 12 10 10 12 15 12 13 15 14 15 15 16 16 16 16 17 20 20 21 23 25 27 30 32 34 38 41 43 42 43 41 40 41 41 39 39 39 38 36 35
25 21 11 17 15 18 18 18 22 21 19 14 13 14 11 10 11 13 14 14 15 16 15 12 12 12 11 13 15 19 24 25 26 29 31 33 37 42 45 47 45 43 41 45 43 43 41 39 39 38 37 36 33 33
13 9 12 13 19 19 18 15 13 15 13 13 13 12 11 11 11 7 9 14 14 12 12 11 12 16 18 20 22 25 28 30 34 37 40 43 44 43 42 40 39 39 37 35 35 37 37 36 36 35 34 31 29 29
6 7 13 16 12 11 12 14 14 12 12 13 14 11 10 6 6 11 12 12 11 12 15 18 22 23 25 27 29 32 37 40 41 41 40 37 36 35 37 38 39 38 35 31 32 33 33 32 31 31 31 30 29 27
6 8 10 10 10 9 7 8 9 8 9 10 10 8 5 5 10 12 12 14 17 21 23 25 27 28 31 35 39 41 39 37 37 35 33 35 37 36 34 35 35 36 35 34 33 31 31 32 32 31 30 29 28 28
8 9 8 6 6 5 6 6 8 9 8 7 7 9 13 15 17 19 21 23 24 26 28 30 33 34 37 38 37 38 37 34 33 34 35 35 34 34 34 34 34 34 33 32 32 32 32 32 31 30 29 29 27 26
5 4 4 4 5 6 6 7 7 9 11 13 15 17 21 23 24 24 26 27 28 29 32 35 36 34 34 34 31 30 33 33 36 38 39 38 38 37 36 35 34 32 31 30 29 28 28 28 28 27 26 24 23 24
2 3 5 6 9 10 12 14 15 16 18 20 22 23 25 26 27 28 30 31 31 31 31 32 31 29 26 25 28 31 34 37 38 38 39 40 39 38 37 36 34 33 32 30 28 26 25 23 22 22 21 20 20 20
7 8 9 9 10 12 14 15 17 18 19 18 22 24 26 26 27 27 26 26 25 24 24 21 21 24 28 32 35 37 38 39 39 38 39 39 38 38 37 34 33 32 31 29 26 24 22 22 21 21 20 19 20 20
6 5 6 8 11 14 15 17 21 23 23 22 22 21 22 23 24 23 21 21 20 19 21 24 28 32 33 34 32 32 33 33 33 33 33 34 35 36 36 35 33 30 28 28 27 24 22 21 21 20 20 21 21 19
Wind_Direction
186 188 189 195 198 200 202 205 206 208 210 209 207 208 208 207 208 213 213 215 222 223 223 209 207 188 193 207 226 228 215 222 228 226 226 226 221 217 218 212 248 248 239 237 207 230 264 264 269 266 262 270 288 293
193 194 192 195 197 201 204 207 208 208 211 212 211 212 213 212 210 213 213 215 221 224 225 221 228 228 224 204 226 234 222 229 224 228 232 233 227 223 228 224 236 235 254 258 252 260 282 300 298 295 292 289 298 277
173 189 198 195 196 200 206 209 211 213 215 217 216 217 219 218 214 213 215 218 220 227 227 221 219 224 223 228 243 237 242 246 247 245 251 244 238 246 250 257 243 234 251 259 264 275 279 283 283 284 285 290 284 282
173 180 193 202 199 201 204 209 213 216 219 221 222 222 221 220 218 215 214 216 220 229 231 233 234 231 232 232 236 243 246 246 252 258 257 254 256 267 266 263 248 256 261 271 265 276 278 270 276 282 292 279 289 294
175 188 196 202 201 205 204 207 211 215 218 221 222 221 221 220 219 219 217 219 222 225 233 241 242 240 239 241 245 247 251 255 257 258 257 260 262 261 262 265 263 270 275 269 282 286 273 271 279 287 292 282 294 296
160 206 201 202 209 204 208 208 209 213 215 216 219 221 221 222 221 220 222 220 222 230 239 245 249 244 243 246 247 250 255 257 262 264 262 262 267 261 263 263 278 282 269 261 265 270 283 283 281 285 288 279 298 308
123 143 165 201 208 211 213 214 210 216 218 218 219 221 222 223 222 223 227 228 227 232 238 246 251 247 246 244 244 245 248 250 253 256 261 266 265 258 260 266 282 281 283 280 271 285 279 287 292 281 285 297 302 308
165 148 143 169 199 213 214 215 217 221 219 220 220 221 222 227 229 229 231 234 237 239 242 240 246 241 249 245 246 248 251 258 259 259 263 265 266 256 256 270 277 280 285 259 273 279 283 287 279 288 296 303 307 308
220 218 216 199 181 208 216 216 217 219 223 224 224 224 224 227 231 233 236 237 239 239 236 240 239 246 250 252 252 252 254 256 262 260 263 262 260 251 266 274 275 274 255 268 282 283 276 279 277 286 298 306 304 304
231 236 235 238 238 237 226 220 220 217 218 222 225 228 231 230 232 236 239 239 240 240 242 245 246 243 248 248 248 246 247 249 252 262 265 259 264 269 266 266 274 269 268 273 280 279 265 273 291 296 298 298 299 302
229 235 237 235 238 239 248 238 227 215 215 220 223 228 235 241 238 235 235 237 238 242 248 249 248 249 249 246 247 242 240 239 250 263 249 260 267 275 275 260 264 260 264 269 269 268 277 283 290 294 296 300 306 309
224 228 232 232 236 239 240 250 243 223 212 220 223 225 218 218 212 215 218 227 233 238 241 246 249 246 244 246 241 238 236 243 252 261 249 256 275 266 275 260 238 239 253 262 266 270 278 289 295 298 300 304 307 309
209 212 220 228 233 245 250 251 248 231 215 223 222 219 222 219 218 198 204 199 208 223 236 239 236 235 237 236 229 233 233 233 242 235 238 246 241 235 219 239 256 253 252 259 268 281 290 295 300 304 306 307 308 309
203 212 217 223 227 234 249 252 247 231 224 229 226 204 209 214 212 209 213 227 226 237 240 243 240 227 229 224 224 220 220 209 201 220 216 209 219 229 267 276 259 257 254 274 287 295 302 304 306 307 308 308 309 310
196 207 213 218 217 221 243 232 210 220 217 218 211 220 219 223 226 234 237 239 240 241 231 218 214 213 208 198 200 199 195 208 196 199 183 201 271 303 299 266 264 264 281 289 295 303 305 307 308 309 309 310 311 311
203 214 218 221 224 226 234 246 279 216 230 225 227 195 174 180 186 181 150 144 150 170 182 182 172 161 171 185 189 191 182 182 177 261 304 306 297 306 275 265 264 281 290 295 301 304 305 308 309 310 313 314 313 312
226 214 216 224 230 233 244 252 269 188 169 188 178 177 163 142 168 159 196 238 247 237 195 174 134 125 119 237 190 210 253 294 320 325 322 313 300 278 263 272 284 288 294 299 301 303 305 309 312 313 314 313 311 313
239 226 221 230 232 233 239 244 224 242 246 231 164 170 221 181 182 175 305 288 286 227 235 255 268 247 234 275 288 292 301 302 300 293 287 284 283 282 281 285 291 296 299 300 303 306 308 309 310 312 314 316 316 317
231 230 221 225 231 227 232 249 251 249 251 252 257 238 222 211 192 193 196 199 203 213 229 240 246 245 268 276 275 277 281 286 290 290 289 288 283 283 286 291 293 294 297 300 302 304 306 308 310 311 311 310 312 315
226 223 217 220 222 218 233 236 232 234 209 201 209 222 220 211 209 212 219 227 234 241 239 241 246 256 259 263 269 276 282 287 287 284 283 284 288 291 292 290 291 295 299 301 300 303 306 308 312 312 310 309 310 311
218 221 212 197 230 219 220 229 237 243 254 237 227 215 219 224 230 233 238 242 248 249 253 267 273 267 267 273 279 283 284 285 283 283 286 287 286 288 290 295 299 300 301 303 303 303 303 303 303 305 306 307 307 308
217 211 200 205 217 230 227 229 231 229 225 223 221 230 233 236 239 243 247 247 252 268 269 266 268 269 273 274 274 278 277 276 276 276 277 281 287 294 303 308 308 308 306 303 301 301 301 301 303 304 304 307 306 305
221 213 212 232 230 225 218 215 223 225 223 227 223 227 232 240 249 254 254 265 273 262 262 268 275 280 274 276 277 275 275 275 279 283 288 290 294 302 306 308 307 308 306 304 304 302 301 303 302 302 303 304 305 303
233 236 226 225 217 202 212 219 222 226 229 223 223 232 247 253 261 260 266 275 276 274 269 268 271 273 273 272 272 272 278 285 286 289 291 293 297 300 302 302 304 304 303 301 299 298 298 299 298 298 299 300 301 301
231 242 211 202 198 199 204 212 211 216 222 230 241 248 254 266 267 277 282 284 279 280 277 276 276 277 272 277 276 278 288 300 302 297 297 297 297 298 297 297 298 296 292 289 292 292 294 294 295 297 299 300 302 301
210 187 186 188 185 191 196 191 203 216 223 230 240 249 258 265 269 264 262 282 288 275 271 272 281 290 289 293 293 294 295 296 298 299 299 300 301 300 300 303 307 307 305 300 294 293 294 295 297 298 299 300 300 299
170 166 167 172 175 189 199 210 220 229 233 237 249 253 259 251 249 249 271 277 278 272 275 285 295 297 296 295 296 294 297 298 299 301 303 302 300 300 301 302 304 308 308 302 296 294 294 295 295 296 296 298 298 297
124 148 155 168 180 185 196 204 217 227 235 246 250 242 229 215 233 279 289 287 288 290 290 291 294 295 292 293 294 296 298 299 301 301 303 304 305 308 306 302 301 303 303 299 295 292 291 291 291 291 293 295 294 290
127 133 140 157 176 192 206 213 217 221 227 225 234 247 260 275 283 284 287 288 289 289 289 287 288 289 293 295 296 297 300 300 299 300 302 302 302 300 301 301 299 298 297 295 293 292 291 290 290 290 289 289 288 286
120 137 174 196 213 225 236 239 242 239 244 253 262 268 275 281 286 286 287 288 288 289 290 291 292 294 295 296 297 296 298 302 305 306 305 303 303 301 299 296 294 297 299 299 298 295 292 290 287 285 286 285 284 282
269 264 260 256 253 252 253 255 257 260 262 267 272 274 278 285 286 287 289 289 290 291 293 294 295 296 295 295 298 301 304 306 306 304 303 302 302 301 298 295 293 293 294 295 297 297 296 291 288 286 285 282 279 279
270 264 264 263 267 269 270 273 276 279 281 282 282 283 285 285 288 292 293 294 294 294 295 296 299 302 304 306 308 308 308 307 306 305 303 301 299 298 299 299 296 291 288 287 286 289 291 290 287 286 285 280 279 282
282 276 278 283 287 288 288 289 290 291 291 289 287 292 294 292 293 296 298 299 299 298 301 307 309 310 311 311 313 314 315 314 315 314 312 311 308 304 299 296 294 295 293 285 280 279 281 285 287 286 283 282 281 283
Height
2992 3000 3008 3016 3023 3030 3037 3044 3051 3057 3062 3067 3071 3076 3079 3083 3087 3090 3093 3095 3098 3100 3102 3104 3107 3111 3113 3114 3114 3116 3120 3120 3122 3123 3125 3125 3125 3126 3127 3127 3126 3127 3128 3127 3128 3129 3125 3122 3121 3121 3119 3115 3111 3108
2991 2998 3006 3013 3020 3027 3034 3041 3047 3053 3059 3064 3069 3073 3077 3081 3084 3088 3091 3093 3095 3098 3101 3102 3104 3107 3109 3110 3111 3113 3116 3117 3118 3119 3121 3121 3121 3122 3122 3123 3124 3125 3123 3123 3122 3120 3119 3117 3113 3111 3109 3107 3104 3101
2988 2996 3004 3010 3017 3024 3031 3038 3044 3050 3055 3061 3066 3070 3074 3078 3082 3085 3089 3091 3093 3096 3098 3099 3101 3104 3105 3107 3109 3111 3112 3114 3114 3114 3117 3117 3118 3118 3118 3116 3118 3118 3119 3117 3116 3113 3113 3112 3109 3101 3101 3100 3096 3093
2987 2994 3002 3008 3015 3021 3028 3034 3040 3046 3052 3057 3062 3067 3071 3075 3078 3082 3085 3088 3090 3094 3095 3096 3098 3100 3103 3104 3105 3106 3108 3109 3110 3111 3111 3112 3113 3112 3110 3113 3112 3113 3113 3111 3108 3107 3107 3104 3100 3098 3095 3092 3089 3086
2990 2994 3000 3006 3013 3019 3025 3031 3036 3042 3048 3053 3058 3062 3067 3071 3075 3078 3082 3084 3087 3091 3089 3092 3094 3097 3098 3100 3101 3102 3103 3105 3104 3105 3105 3106 3105 3107 3103 3101 3101 3106 3104 3104 3100 3099 3097 3096 3092 3090 3088 3085 3083 3080
2991 2995 2999 3004 3011 3016 3022 3028 3033 3039 3044 3048 3053 3058 3062 3067 3070 3074 3077 3079 3083 3085 3087 3088 3089 3090 3093 3095 3096 3097 3098 3099 3099 3098 3098 3098 3098 3101 3095 3090 3092 3095 3097 3095 3094 3090 3088 3088 3086 3082 3080 3078 3076 3074
2993 2995 2998 3003 3008 3013 3019 3024 3029 3035 3040 3044 3049 3053 3057 3062 3065 3068 3072 3077 3078 3081 3082 3083 3081 3083 3087 3089 3090 3092 3091 3092 3093 3092 3089 3092 3093 3093 3086 3082 3088 3088 3087 3086 3083 3082 3081 3078 3077 3074 3073 3072 3069 3066
2995 2998 3001 3003 3007 3011 3014 3019 3025 3031 3036 3040 3044 3049 3053 3056 3060 3063 3067 3071 3074 3075 3078 3076 3074 3078 3081 3080 3082 3085 3084 3086 3085 3085 3082 3083 3084 3083 3076 3077 3078 3080 3080 3076 3075 3076 3075 3072 3071 3069 3066 3065 3062 3060
2995 2999 3002 3004 3006 3008 3011 3015 3020 3026 3031 3035 3040 3044 3047 3049 3053 3059 3063 3065 3067 3071 3068 3064 3067 3071 3073 3073 3076 3078 3078 3078 3078 3074 3076 3077 3071 3067 3069 3071 3071 3071 3069 3069 3069 3068 3066 3066 3064 3063 3060 3058 3056 3053
2995 2998 3000 3003 3005 3007 3010 3011 3015 3020 3026 3030 3035 3038 3038 3043 3050 3055 3057 3058 3059 3059 3057 3056 3060 3063 3067 3068 3070 3074 3072 3072 3067 3066 3067 3063 3056 3058 3062 3062 3063 3061 3061 3062 3061 3060 3060 3059 3058 3056 3054 3052 3049 3046
2992 2995 2998 3002 3004 3006 3008 3010 3012 3016 3020 3024 3028 3031 3034 3038 3045 3047 3049 3050 3050 3047 3046 3047 3051 3055 3057 3062 3065 3066 3063 3063 3060 3058 3059 3052 3045 3049 3052 3053 3052 3053 3055 3055 3055 3054 3054 3054 3052 3050 3048 3045 3041 3037
2989 2993 2997 2999 3002 3005 3007 3010 3012 3014 3018 3021 3024 3027 3031 3033 3033 3036 3036 3039 3036 3037 3035 3035 3041 3045 3050 3053 3056 3057 3056 3057 3053 3050 3049 3042 3043 3041 3043 3045 3047 3048 3049 3050 3050 3050 3050 3049 3046 3044 3041 3037 3033 3029
2990 2993 2995 2999 3001 3003 3005 3008 3010 3011 3014 3017 3019 3021 3023 3023 3022 3021 3022 3022 3022 3021 3021 3025 3032 3038 3041 3045 3047 3048 3046 3044 3042 3041 3038 3038 3037 3038 3039 3042 3043 3043 3043 3044 3045 3045 3045 3043 3039 3036 3033 3029 3025 3020
2988 2992 2994 2996 2999 3002 3003 3006 3007 3009 3011 3014 3014 3015 3016 3014 3014 3015 3017 3016 3017 3018 3020 3023 3027 3032 3032 3036 3037 3035 3035 3034 3035 3034 3033 3033 3033 3034 3035 3037 3038 3040 3040 3040 3040 3039 3037 3035 3032 3028 3025 3021 3017 3012
2990 2992 2994 2997 3000 3002 3004 3005 3005 3007 3009 3011 3012 3011 3010 3011 3012 3013 3014 3015 3015 3016 3018 3020 3021 3024 3023 3027 3026 3027 3028 3028 3027 3029 3029 3029 3030 3032 3032 3034 3035 3036 3036 3034 3033 3031 3028 3026 3024 3021 3017 3013 3008 3004
2990 2992 2995 2998 3000 3001 3003 3005 3005 3007 3007 3010 3011 3010 3010 3011 3012 3013 3013 3014 3014 3014 3016 3017 3017 3019 3020 3021 3022 3023 3025 3025 3026 3027 3028 3028 3029 3030 3031 3031 3031 3030 3029 3027 3026 3023 3020 3018 3015 3012 3008 3004 3000 2996
2989 2991 2993 2995 2997 3000 3002 3004 3005 3006 3008 3008 3008 3010 3012 3012 3014 3014 3015 3015 3015 3016 3016 3017 3018 3019 3020 3020 3021 3021 3023 3024 3024 3025 3026 3027 3027 3028 3028 3027 3026 3024 3022 3020 3018 3016 3013 3009 3006 3003 3000 2996 2992 2988
2987 2989 2991 2994 2996 2999 3001 3003 3005 3006 3006 3008 3009 3011 3012 3013 3012 3013 3014 3016 3016 3016 3016 3016 3017 3018 3019 3020 3020 3021 3021 3022 3023 3024 3024 3023 3022 3022 3021 3021 3019 3016 3014 3012 3010 3008 3005 3002 2999 2996 2992 2988 2984 2982
2984 2986 2988 2991 2994 2998 3000 3002 3003 3002 3003 3005 3007 3009 3010 3010 3010 3011 3012 3014 3014 3014 3014 3015 3017 3017 3018 3017 3017 3017 3017 3018 3018 3019 3018 3017 3016 3015 3014 3013 3011 3010 3007 3005 3003 3000 2997 2994 2990 2987 2984 2981 2977 2974
2982 2984 2986 2989 2992 2994 2997 2999 3000 3000 3001 3003 3004 3006 3007 3008 3009 3009 3010 3012 3012 3011 3011 3012 3014 3016 3016 3015 3014 3014 3013 3014 3013 3013 3013 3011 3009 3007 3006 3006 3005 3003 3000 2997 2995 2992 2988 2985 2982 2979 2976 2972 2969 2965
2979 2981 2984 2987 2989 2992 2994 2994 2996 2998 2999 3000 3001 3002 3004 3005 3005 3006 3007 3008 3008 3007 3008 3010 3011 3012 3011 3011 3010 3009 3008 3007 3006 3006 3006 3005 3003 3001 3000 2998 2997 2995 2992 2989 2986 2983 2981 2978 2975 2971 2967 2964 2960 2956
2977 2979 2982 2984 2986 2988 2990 2992 2994 2995 2997 2997 2999 3000 3000 3001 3002 3003 3004 3003 3003 3006 3006 3007 3007 3005 3005 3005 3005 3004 3003 3002 3001 3000 3000 2998 2996 2994 2993 2991 2989 2987 2984 2981 2977 2974 2970 2968 2964 2961 2957 2954 2950 2947
2975 2977 2980 2980 2982 2983 2985 2987 2989 2991 2993 2994 2995 2996 2997 2998 2999 3000 2999 3000 3001 3001 3000 3000 3000 3001 3000 3000 2999 2998 2996 2995 2995 2994 2992 2991 2989 2987 2985 2983 2981 2978 2974 2971 2969 2964 2960 2958 2954 2950 2947 2944 2940 2937
2973 2974 2974 2976 2977 2977 2978 2982 2985 2988 2989 2991 2992 2993 2993 2995 2996 2995 2995 2997 2997 2995 2995 2995 2995 2995 2995 2994 2993 2992 2990 2990 2989 2987 2985 2983 2980 2978 2976 2974 2971 2968 2964 2960 2956 2952 2949 2946 2943 2940 2937 2934 2931 2927
2970 2972 2970 2970 2971 2973 2974 2977 2980 2983 2985 2987 2989 2989 2989 2991 2991 2991 2991 2991 2990 2991 2990 2991 2991 2990 2990 2989 2988 2985 2983 2983 2982 2980 2978 2975 2972 2968 2964 2961 2958 2955 2952 2946 2943 2940 2937 2934 2932 2929 2926 2923 2920 2917
2963 2963 2965 2964 2966 2970 2971 2975 2978 2979 2981 2983 2984 2985 2986 2986 2987 2987 2986 2986 2986 2987 2986 2987 2986 2986 2985 2983 2982 2980 2978 2976 2974 2970 2968 2964 2959 2954 2949 2946 2943 2940 2938 2934 2930 2927 2925 2923 2921 2918 2916 2914 2911 2908
2959 2960 2961 2963 2964 2967 2969 2972 2975 2976 2977 2979 2980 2982 2982 2983 2982 2982 2982 2982 2983 2983 2982 2982 2981 2980 2978 2976 2974 2971 2968 2966 2963 2959 2955 2951 2947 2944 2941 2936 2931 2928 2925 2922 2920 2917 2915 2913 2911 2909 2907 2904 2902 2900
2959 2959 2961 2964 2965 2967 2969 2971 2972 2973 2975 2976 2978 2978 2979 2979 2979 2979 2979 2979 2979 2978 2977 2975 2974 2972 2969 2967 2964 2960 2958 2955 2952 2948 2945 2940 2936 2934 2931 2926 2922 2918 2915 2912 2909 2907 2905 2903 2901 2899 2897 2895 2893 2890
2961 2962 2964 2965 2966 2967 2968 2969 2970 2971 2973 2974 2975 2975 2975 2975 2975 2975 2975 2973 2972 2971 2969 2968 2965 2963 2960 2956 2952 2949 2946 2943 2941 2938 2935 2932 2929 2926 2921 2917 2913 2910 2906 2903 2901 2898 2895 2893 2891 2889 2887 2886 2884 2881
2963 2964 2964 2965 2966 2966 2967 2968 2969 2970 2970 2971 2971 2971 2970 2969 2969 2968 2967 2966 2965 2963 2960 2957 2954 2952 2949 2946 2943 2939 2935 2934 2930 2927 2923 2920 2917 2914 2910 2907 2903 2900 2896 2893 2890 2888 2885 2883 2881 2879 2877 2877 2875 2873
2963 2964 2964 2964 2965 2966 2966 2966 2966 2967 2967 2966 2966 2965 2963 2962 2961 2960 2959 2957 2955 2952 2950 2947 2944 2942 2939 2937 2934 2931 2928 2924 2920 2915 2911 2907 2903 2900 2897 2895 2892 2889 2886 2884 2881 2878 2876 2874 2872 2870 2869 2868 2867 2866
2962 2962 2962 2962 2963 2963 2962 2962 2961 2961 2960 2960 2958 2957 2956 2954 2952 2952 2950 2947 2945 2943 2941 2939 2937 2935 2932 2929 2925 2921 2917 2913 2908 2904 2900 2896 2892 2889 2885 2883 2880 2878 2876 2874 2871 2869 2868 2866 2864 2863 2861 2861 2860 2859
2960 2960 2959 2959 2959 2958 2958 2957 2955 2954 2953 2952 2950 2950 2948 2946 2944 2944 2942 2940 2939 2936 2934 2932 2930 2927 2923 2919 2915 2912 2908 2904 2899 2895 2891 2886 2882 2878 2874 2872 2869 2867 2865 2863 2861 2860 2859 2858 2857 2855 2855 2854 2853 2852